Dewpoint
-1 -1 -1 2 3 3 3 3 4 5 6 7 7 8 8 8 8 9 9 8 10 10 10 10 11 10 11 10 10 10 9 8 8 8 9 9 9 9 9 8 7 6 5
-2 -2 -2 0 2 3 3 3 4 5 6 6 7 7 7 7 8 7 7 7 6 6 7 9 9 10 9 9 9 10 9 9 7 9 9 9 9 9 9 8 7 6 6
-4 -3 -4 -3 2 2 3 3 3 4 4 6 7 7 7 7 7 7 7 7 8 7 9 9 10 9 9 10 10 10 8 6 6 7 8 9 8 8 7 8 8 7 6
-6 -6 -5 -9 -2 2 2 3 3 3 3 4 5 5 6 6 5 5 6 6 7 7 8 9 8 9 9 10 10 9 8 7 8 7 8 8 7 7 8 7 8 7 7
-10 -9 -9 -11 -12 -2 1 2 3 3 3 3 3 3 2 2 2 3 4 4 5 5 6 7 7 8 9 9 9 9 9 9 9 8 8 8 8 7 7 8 7 7 7
-10 -11 -12 -13 -13 -13 -8 -1 0 2 2 3 2 2 2 2 2 3 3 4 4 4 4 5 5 5 6 6 7 6 7 8 8 8 8 8 8 8 8 7 7 7 8
-11 -11 -13 -14 -15 -14 -15 -14 -11 -10 -10 -3 0 1 1 -0 1 2 2 2 3 3 3 3 4 4 4 4 4 4 5 5 5 6 6 7 6 6 6 6 6 7 7
-11 -11 -14 -14 -15 -15 -16 -16 -17 -17 -15 -16 -16 -11 -13 -17 -17 -14 -7 -2 -4 1 1 2 3 3 4 3 3 3 4 4 4 4 4 4 4 4 4 4 4 4 4
-10 -11 -13 -14 -15 -15 -16 -17 -18 -18 -19 -20 -20 -20 -19 -19 -20 -21 -21 -22 -22 -21 -20 -14 -8 -5 -1 2 3 3 3 4 3 4 4 4 4 4 4 4 3 4 4
-10 -11 -12 -14 -14 -15 -16 -17 -17 -18 -18 -19 -19 -20 -20 -20 -20 -21 -21 -22 -22 -23 -23 -22 -22 -21 -22 -23 -22 -14 -6 -1 1 2 2 3 3 3 3 4 3 3 3
-9 -11 -12 -13 -14 -15 -16 -17 -18 -18 -18 -18 -18 -18 -18 -19 -19 -20 -20 -20 -21 -21 -21 -21 -22 -22 -24 -24 -25 -25 -25 -26 -25 -22 -18 -14 -10 -7 -3 1 2 3 2
-9 -10 -12 -12 -14 -15 -16 -17 -17 -18 -18 -18 -17 -18 -18 -19 -19 -20 -20 -21 -21 -21 -21 -21 -22 -22 -22 -22 -22 -23 -24 -25 -26 -26 -27 -27 -28 -28 -26 -22 -19 -16 -11
-9 -10 -11 -12 -13 -14 -16 -16 -17 -17 -17 -17 -17 -18 -18 -19 -20 -20 -20 -20 -20 -20 -21 -21 -21 -22 -22 -22 -22 -22 -22 -22 -22 -22 -23 -25 -26 -26 -26 -26 -25 -25 -22
-9 -10 -11 -12 -13 -14 -15 -16 -15 -14 -16 -16 -14 -17 -17 -18 -19 -19 -19 -19 -20 -20 -21 -21 -22 -22 -23 -23 -24 -24 -24 -24 -22 -21 -21 -21 -22 -22 -23 -24 -24 -20 -13
-9 -10 -11 -11 -12 -14 -14 -8 -12 -16 -17 -17 -17 -18 -18 -18 -18 -19 -19 -19 -20 -20 -21 -22 -22 -23 -23 -24 -24 -25 -25 -25 -25 -25 -25 -23 -24 -24 -23 -21 -20 -18 -19
-9 -10 -10 -11 -12 -14 -13 -9 -8 -14 -16 -17 -17 -17 -18 -18 -18 -19 -19 -20 -20 -21 -21 -22 -22 -23 -23 -24 -24 -25 -25 -26 -25 -26 -25 -24 -23 -17 -20 -21 -20 -19 -16
-9 -10 -10 -11 -11 -9 -8 -12 -16 -16 -16 -16 -16 -17 -18 -18 -19 -19 -19 -20 -20 -21 -21 -22 -22 -23 -24 -24 -24 -24 -24 -24 -23 -22 -21 -21 -18 -17 -17 -14 -9 -8 -8
-9 -10 -11 -10 -8 -9 -11 -12 -9 -9 -9 -11 -16 -17 -18 -18 -18 -19 -19 -20 -20 -21 -21 -21 -21 -21 -22 -22 -22 -22 -22 -19 -15 -12 -13 -16 -18 -16 -11 -10 -10 -9 -9
-10 -9 -8 -10 -10 -11 -9 -8 -8 -8 -9 -12 -17 -17 -18 -18 -19 -19 -20 -20 -21 -21 -22 -22 -22 -22 -21 -21 -21 -20 -16 -12 -11 -11 -11 -11 -11 -11 -10 -10 -10 -10 -10
-9 -11 -12 -11 -8 -8 -8 -8 -9 -10 -12 -16 -17 -17 -18 -18 -19 -20 -20 -21 -21 -21 -21 -21 -21 -21 -21 -20 -16 -12 -12 -11 -11 -11 -12 -12 -11 -10 -10 -10 -11 -11 -11
-11 -11 -9 -8 -8 -9 -9 -9 -10 -13 -16 -17 -17 -18 -19 -19 -20 -20 -21 -20 -19 -19 -19 -18 -18 -18 -17 -17 -16 -13 -12 -12 -12 -12 -12 -12 -11 -10 -10 -10 -11 -11 -10
-9 -9 -9 -9 -9 -9 -10 -11 -13 -16 -17 -18 -19 -19 -19 -20 -20 -19 -18 -16 -15 -16 -16 -15 -16 -14 -14 -13 -13 -12 -12 -12 -12 -12 -13 -13 -12 -11 -11 -11 -11 -10 -9
-9 -9 -9 -10 -10 -10 -11 -15 -17 -18 -18 -19 -20 -20 -20 -20 -19 -18 -17 -19 -17 -15 -15 -14 -14 -14 -14 -14 -13 -12 -12 -12 -12 -12 -12 -12 -12 -12 -12 -12 -11 -10 -11
-10 -10 -10 -11 -12 -13 -17 -18 -19 -19 -20 -20 -20 -20 -21 -18 -17 -17 -16 -15 -15 -15 -15 -15 -15 -15 -15 -15 -15 -14 -14 -14 -14 -13 -13 -12 -12 -13 -11 -11 -13 -13 -13
-11 -11 -11 -13 -16 -18 -19 -19 -19 -20 -20 -21 -21 -20 -18 -18 -17 -15 -15 -15 -15 -15 -15 -15 -15 -15 -15 -15 -14 -13 -13 -13 -13 -12 -13 -14 -14 -12 -14 -14 -14 -13 -12
-11 -13 -17 -18 -19 -19 -20 -20 -21 -20 -20 -20 -19 -19 -18 -16 -15 -15 -16 -15 -15 -15 -15 -14 -14 -15 -14 -14 -14 -14 -13 -13 -13 -13 -14 -13 -13 -14 -15 -15 -14 -14 -13
Wind_Speed
9 12 14 22 23 23 30 24 14 9 7 4 2 3 8 12 14 13 15 19 19 20 22 27 27 31 32 33 37 35 34 31 30 25 22 23 28 28 28 26 25 23 24
8 10 13 16 24 24 30 27 20 13 8 3 4 5 10 11 13 16 18 19 22 24 26 26 31 33 33 34 34 35 34 31 28 29 26 21 27 33 31 30 28 29 28
9 11 13 15 19 26 24 30 32 25 15 5 10 9 11 11 12 11 13 14 16 20 24 25 29 30 33 32 35 37 35 34 30 32 21 12 13 23 33 34 34 34 31
4 7 10 14 15 19 23 21 24 31 30 17 10 7 8 7 8 6 2 4 8 11 15 18 24 31 31 35 31 34 38 33 33 33 36 26 13 14 11 22 34 35 35
1 4 7 10 13 12 15 20 20 21 23 26 27 25 23 20 17 17 15 15 14 12 9 8 8 19 22 29 35 24 34 31 26 28 33 34 30 22 17 11 19 27 37
1 1 4 6 9 11 13 14 17 17 17 17 21 21 20 16 17 20 17 15 14 15 16 15 14 11 9 10 14 9 12 18 20 21 22 22 30 35 28 22 13 18 23
5 3 1 1 4 7 9 12 15 16 15 14 16 17 19 19 17 14 17 18 15 13 14 11 10 9 7 9 6 5 7 5 2 8 12 16 11 12 12 13 13 15 17
9 8 6 4 2 2 6 8 10 12 13 15 17 16 15 16 15 15 13 14 14 11 11 14 11 9 6 4 7 8 6 7 8 7 5 4 8 8 7 7 7 12 13
12 10 9 6 4 3 2 5 6 8 11 13 14 14 15 15 16 15 14 15 14 15 15 15 14 13 11 5 5 6 9 10 7 8 9 9 6 4 7 9 13 13 14
15 13 12 10 7 4 3 3 4 6 7 9 10 12 13 13 14 14 13 14 15 14 13 12 12 12 11 9 7 6 5 8 8 8 10 11 13 16 16 17 19 20 23
18 16 13 12 10 7 4 2 2 3 4 6 8 10 11 12 12 12 13 13 14 14 14 14 13 12 12 9 9 8 7 7 6 8 9 10 11 12 13 16 19 20 22
18 17 15 13 11 9 6 3 1 1 2 4 6 8 9 10 11 11 11 11 12 13 14 15 14 13 12 11 10 10 10 11 11 11 11 12 12 12 13 14 14 15 19
18 18 16 14 12 10 8 6 2 3 2 3 5 7 9 11 13 15 15 14 13 13 12 12 13 13 14 14 14 14 14 14 13 13 13 13 14 14 14 15 16 16 16
19 18 16 14 11 10 10 7 3 4 4 4 5 6 7 8 9 11 14 17 18 17 15 15 15 15 15 16 15 15 15 14 15 14 14 14 14 15 16 16 16 15 17
16 17 15 13 11 9 8 8 6 5 4 4 5 7 8 10 11 11 12 12 13 15 16 16 16 16 16 16 17 18 18 18 19 18 18 17 17 18 17 16 17 18 19
15 16 15 13 11 9 7 9 6 5 5 5 7 8 9 10 11 12 13 13 14 14 13 13 14 15 14 15 16 17 18 19 20 20 20 21 20 18 20 19 19 20 20
13 16 16 14 12 13 7 4 5 4 5 7 10 11 12 13 14 15 15 16 17 17 18 18 18 17 16 15 17 17 18 19 19 20 20 20 18 19 20 19 17 17 15
9 13 14 14 13 9 6 6 6 6 7 9 11 12 13 14 14 15 16 17 17 18 18 18 18 19 19 21 22 21 20 17 16 17 19 20 20 19 19 20 20 18 17
7 10 10 11 9 7 9 9 7 6 6 9 12 13 14 15 16 17 18 18 19 19 20 20 20 21 21 21 21 20 18 14 13 16 17 18 20 20 18 20 22 21 21
9 11 12 10 8 9 7 7 5 6 8 11 14 15 15 17 18 19 20 20 20 21 21 22 22 22 23 21 18 16 15 14 14 15 16 16 17 18 19 20 22 23 23
10 10 9 8 6 5 5 4 5 7 12 14 16 16 17 18 19 20 20 20 20 21 22 22 22 22 20 20 18 17 16 17 18 21 21 18 17 19 20 21 24 27 27
7 6 5 4 3 3 4 5 7 12 15 16 17 17 18 19 20 20 20 18 19 21 22 22 22 18 17 16 17 18 18 20 21 24 23 23 22 23 26 27 26 25 25
5 3 2 2 3 5 7 8 11 14 16 17 18 18 19 20 20 19 19 21 19 19 20 18 20 20 17 18 17 17 18 18 19 23 24 25 26 27 27 25 24 24 26
1 1 1 3 4 8 10 12 14 16 17 19 19 20 21 18 17 17 16 16 16 17 17 19 21 23 23 21 20 19 20 23 24 24 26 27 28 27 24 21 23 25 25
1 3 6 7 8 11 12 14 15 17 18 18 19 18 16 18 17 14 15 16 17 16 21 24 24 25 26 24 21 24 26 26 26 27 30 31 29 20 26 26 24 22 22
5 7 8 9 11 13 14 15 15 16 16 17 16 17 17 16 15 17 20 17 17 18 19 20 21 24 23 24 24 25 26 26 26 29 31 30 25 26 26 25 25 23 23
Wind_Direction
360 356 357 10 16 24 22 12 3 351 334 288 241 210 247 232 236 239 244 247 249 247 253 249 247 227 223 222 224 224 215 211 218 221 216 220 225 225 224 228 234 235 241
356 354 359 12 22 26 39 32 28 13 4 257 222 229 253 249 255 260 265 265 264 258 256 257 252 254 233 231 230 219 214 213 217 215 220 214 222 224 225 230 234 238 240
353 356 3 18 31 33 36 43 44 40 32 111 180 212 196 240 251 260 268 272 275 268 257 255 256 254 236 237 227 216 214 216 217 220 217 205 220 225 233 231 232 234 236
357 5 13 25 31 39 42 42 44 43 46 46 67 152 173 142 96 96 191 214 261 252 257 250 257 245 242 240 223 223 220 219 225 221 222 221 216 204 200 232 237 237 237
64 8 13 26 33 36 39 43 44 45 42 51 54 52 65 62 68 86 104 94 100 113 136 174 183 207 214 211 233 213 218 211 220 224 221 225 222 223 220 204 229 238 238
178 21 17 22 31 38 45 51 51 52 52 57 55 50 42 33 42 42 50 80 67 74 78 85 89 94 124 103 167 146 159 182 200 211 214 228 230 237 232 231 213 228 226
196 214 187 43 38 43 52 56 61 60 56 60 64 63 51 42 44 36 33 23 29 43 56 58 62 65 52 37 24 31 16 49 133 175 191 212 187 190 196 214 232 247 239
203 213 224 201 169 87 70 66 62 60 60 54 51 49 56 58 53 38 37 32 26 18 356 15 28 41 56 21 350 5 312 282 280 300 315 289 264 255 241 264 277 284 269
203 208 217 222 214 176 118 94 75 67 58 56 58 53 47 44 43 44 34 34 31 28 27 10 9 13 10 7 305 262 280 280 280 288 287 264 278 273 271 265 259 260 278
211 206 213 217 216 213 186 110 82 67 64 59 52 49 47 40 35 33 30 22 19 16 16 11 4 10 7 10 7 354 333 304 288 282 274 260 258 259 255 253 257 249 249
215 210 204 210 211 209 200 178 107 72 47 43 43 36 31 33 31 25 20 17 11 7 8 7 6 0 358 351 344 345 326 310 315 302 299 297 290 283 279 269 255 248 251
215 208 202 201 205 207 203 195 171 25 38 38 31 23 19 16 14 16 18 13 5 358 357 356 357 357 353 354 348 343 338 331 327 317 306 303 298 293 292 287 280 270 269
213 207 202 200 200 201 205 209 177 284 326 359 13 13 13 10 4 1 359 356 356 355 350 345 343 346 345 341 343 339 339 335 331 318 312 311 305 301 293 289 288 285 284
214 210 208 204 198 199 202 209 213 266 302 326 337 337 348 346 347 346 344 345 346 345 342 339 337 337 335 335 335 334 331 330 322 316 316 310 307 303 302 298 295 291 283
218 214 211 206 200 200 201 225 230 246 281 314 330 337 340 339 338 337 335 333 332 333 335 336 336 334 332 329 326 323 325 320 315 315 312 309 304 301 298 295 293 288 287
219 211 208 205 197 191 191 218 245 269 291 311 324 328 331 333 332 332 331 329 327 325 322 320 322 323 323 321 319 316 312 310 308 305 303 303 307 308 300 301 293 289 288
225 207 199 193 190 208 210 191 241 284 312 325 327 327 330 332 333 332 331 330 329 327 325 324 323 320 316 314 313 311 306 299 295 296 296 295 296 292 298 295 296 297 296
211 193 190 189 203 194 175 215 244 268 295 314 314 319 324 326 326 325 323 322 321 320 320 318 317 315 318 318 320 319 316 312 307 302 295 291 291 292 295 295 295 288 289
177 176 174 173 170 166 215 240 263 288 310 306 306 315 322 323 320 316 315 315 313 312 311 311 310 310 310 311 311 311 311 305 293 290 296 294 292 296 295 293 292 291 286
139 149 152 165 204 231 248 263 289 326 310 303 312 317 316 314 313 314 314 313 311 309 308 307 307 308 308 308 305 304 302 295 290 289 288 288 287 288 291 291 291 290 288
144 161 188 212 230 249 267 302 330 311 300 307 311 313 314 312 313 312 311 309 308 307 309 307 308 310 311 307 305 306 305 304 296 292 299 294 290 287 287 289 289 285 290
167 179 207 228 254 280 322 336 313 296 305 310 313 315 314 314 315 313 313 310 308 309 309 310 311 311 309 311 311 310 308 305 292 294 297 296 297 296 296 295 290 288 286
188 202 225 265 305 329 333 310 299 304 308 312 314 313 312 313 312 312 308 308 309 309 310 311 311 313 312 308 309 306 302 299 296 295 298 297 298 298 294 291 288 287 283
197 256 328 338 343 312 311 309 307 311 315 316 316 316 316 317 314 313 312 309 308 306 307 308 309 311 312 311 309 306 301 302 301 300 296 296 296 294 288 285 287 286 287
325 328 340 333 304 308 316 313 315 316 317 318 319 320 319 317 318 317 310 307 306 305 306 305 304 303 301 302 301 300 300 299 298 298 296 298 301 285 292 292 293 290 281
330 333 313 310 312 317 319 318 318 319 320 320 321 317 318 320 315 313 314 310 303 301 296 294 294 296 293 297 297 297 296 296 296 296 297 298 290 293 294 294 291 286 284
Height
1528 1525 1523 1518 1512 1506 1498 1489 1485 1483 1482 1483 1484 1486 1488 1488 1488 1488 1489 1490 1491 1491 1493 1494 1495 1496 1498 1497 1504 1506 1507 1511 1515 1517 1519 1520 1524 1526 1528 1531 1533 1536 1538
1529 1527 1523 1519 1512 1505 1498 1492 1487 1484 1482 1482 1484 1486 1485 1484 1486 1486 1486 1486 1486 1487 1488 1489 1491 1491 1493 1496 1497 1499 1501 1504 1508 1510 1516 1515 1519 1519 1521 1525 1526 1529 1532
1527 1524 1522 1518 1514 1507 1501 1497 1493 1487 1483 1481 1481 1483 1483 1484 1484 1483 1482 1482 1482 1482 1483 1484 1484 1485 1484 1488 1488 1490 1493 1498 1502 1505 1509 1510 1510 1513 1515 1517 1520 1523 1525
1524 1523 1521 1518 1514 1511 1507 1503 1498 1494 1489 1486 1483 1482 1482 1482 1482 1482 1483 1481 1482 1480 1479 1479 1479 1480 1483 1483 1482 1484 1489 1491 1495 1498 1501 1503 1506 1508 1509 1511 1513 1517 1519
1522 1522 1521 1519 1516 1512 1509 1506 1502 1498 1497 1494 1491 1489 1485 1487 1485 1484 1483 1481 1481 1479 1479 1477 1478 1476 1476 1474 1479 1478 1482 1485 1489 1491 1494 1498 1500 1502 1504 1505 1507 1510 1512
1523 1521 1520 1519 1517 1514 1511 1508 1505 1502 1501 1499 1496 1495 1493 1490 1489 1488 1486 1483 1483 1482 1480 1479 1477 1477 1476 1470 1473 1476 1475 1478 1480 1484 1488 1491 1494 1496 1498 1500 1502 1505 1507
1520 1519 1517 1518 1517 1516 1513 1509 1507 1505 1504 1502 1500 1498 1497 1496 1495 1492 1490 1490 1487 1486 1482 1481 1479 1478 1477 1473 1477 1477 1479 1479 1481 1482 1483 1487 1488 1491 1491 1495 1498 1500 1501
1515 1515 1516 1515 1514 1514 1513 1511 1509 1507 1506 1504 1501 1500 1498 1496 1495 1494 1492 1490 1491 1489 1488 1484 1482 1479 1479 1477 1478 1476 1482 1483 1485 1482 1483 1481 1487 1488 1487 1492 1495 1497 1497
1512 1512 1512 1514 1514 1513 1513 1511 1511 1508 1507 1506 1504 1503 1501 1499 1498 1496 1494 1494 1492 1489 1486 1485 1483 1481 1479 1477 1478 1480 1481 1481 1481 1480 1482 1482 1483 1483 1486 1489 1492 1494 1494
1510 1509 1510 1511 1511 1513 1512 1511 1510 1510 1508 1507 1506 1505 1503 1501 1500 1498 1496 1494 1492 1490 1488 1486 1484 1482 1481 1481 1482 1481 1480 1481 1480 1480 1482 1480 1481 1483 1484 1485 1487 1490 1490
1506 1508 1508 1508 1509 1510 1511 1511 1510 1508 1509 1508 1507 1506 1504 1503 1501 1499 1497 1495 1494 1493 1489 1487 1485 1483 1484 1481 1483 1480 1480 1482 1478 1479 1479 1479 1479 1480 1480 1481 1481 1482 1483
1502 1504 1505 1506 1506 1508 1509 1510 1510 1509 1508 1507 1506 1505 1504 1503 1501 1500 1499 1497 1495 1492 1491 1489 1487 1486 1485 1483 1482 1482 1481 1478 1475 1476 1476 1476 1478 1477 1476 1477 1479 1479 1478
1499 1501 1502 1504 1505 1505 1506 1508 1508 1509 1508 1507 1505 1504 1503 1501 1500 1497 1496 1495 1494 1493 1491 1491 1489 1486 1483 1482 1479 1478 1474 1474 1473 1475 1476 1473 1475 1474 1472 1474 1475 1473 1472
1496 1499 1502 1503 1505 1504 1504 1506 1506 1508 1508 1507 1506 1505 1503 1502 1501 1499 1496 1493 1491 1490 1490 1488 1486 1483 1481 1479 1477 1475 1474 1473 1475 1476 1473 1472 1471 1470 1469 1470 1470 1468 1468
1496 1499 1501 1503 1504 1504 1503 1504 1506 1507 1507 1506 1505 1503 1502 1500 1498 1497 1496 1495 1493 1490 1487 1485 1483 1481 1480 1478 1476 1475 1471 1473 1474 1471 1469 1468 1467 1467 1467 1464 1464 1464 1462
1492 1495 1498 1501 1502 1503 1503 1503 1504 1505 1505 1504 1503 1502 1501 1499 1498 1496 1494 1493 1491 1489 1488 1486 1483 1481 1479 1477 1476 1474 1473 1471 1469 1468 1466 1465 1463 1462 1461 1459 1459 1460 1457
1489 1491 1493 1496 1499 1499 1499 1502 1502 1502 1502 1502 1501 1500 1499 1497 1495 1494 1492 1490 1488 1486 1484 1482 1479 1477 1476 1475 1473 1471 1469 1469 1466 1463 1462 1463 1460 1460 1456 1457 1456 1457 1452
1488 1490 1493 1493 1494 1494 1497 1499 1499 1499 1499 1499 1499 1498 1496 1495 1493 1492 1490 1487 1485 1483 1481 1478 1476 1473 1472 1470 1468 1467 1465 1463 1461 1460 1461 1458 1455 1454 1454 1453 1451 1451 1447
1488 1490 1492 1492 1492 1495 1495 1496 1497 1497 1497 1497 1496 1495 1493 1492 1491 1489 1487 1485 1482 1480 1478 1476 1473 1470 1468 1466 1464 1462 1460 1460 1459 1458 1456 1455 1453 1453 1452 1449 1445 1441 1440
1488 1489 1489 1490 1492 1492 1494 1495 1495 1495 1495 1494 1493 1491 1490 1489 1487 1485 1483 1480 1478 1475 1473 1471 1469 1465 1463 1461 1460 1458 1456 1456 1455 1454 1453 1451 1449 1448 1446 1444 1440 1436 1436
1487 1488 1489 1490 1490 1491 1492 1493 1493 1494 1493 1491 1490 1488 1486 1485 1482 1480 1478 1476 1473 1470 1468 1466 1463 1460 1458 1456 1454 1453 1451 1450 1448 1446 1444 1444 1444 1442 1440 1438 1434 1431 1430
1489 1489 1490 1490 1491 1491 1491 1491 1492 1491 1490 1488 1486 1485 1483 1480 1477 1475 1472 1471 1468 1465 1462 1460 1457 1456 1454 1452 1449 1448 1447 1446 1443 1441 1439 1437 1435 1433 1431 1428 1425 1424 1422
1489 1490 1490 1490 1490 1490 1490 1490 1489 1487 1486 1484 1482 1480 1478 1476 1473 1470 1468 1465 1463 1461 1458 1456 1453 1451 1450 1447 1446 1445 1444 1442 1440 1437 1433 1431 1428 1425 1423 1421 1419 1417 1414
1490 1491 1490 1490 1490 1489 1489 1488 1486 1484 1482 1480 1477 1475 1473 1470 1468 1465 1463 1462 1460 1457 1455 1453 1450 1447 1445 1443 1441 1440 1438 1436 1433 1431 1428 1425 1423 1421 1418 1415 1412 1411 1408
1490 1490 1490 1490 1489 1488 1486 1484 1482 1480 1477 1475 1473 1471 1469 1466 1464 1462 1460 1458 1456 1455 1452 1449 1447 1444 1441 1440 1439 1437 1434 1431 1428 1425 1421 1418 1415 1412 1410 1408 1406 1404 1401
1490 1489 1489 1488 1486 1485 1483 1481 1479 1476 1474 1472 1470 1468 1465 1463 1461 1458 1455 1454 1452 1451 1449 1446 1443 1440 1438 1435 1433 1430 1427 1424 1421 1417 1413 1410 1407 1405 1403 1400 1398 1396 1394